This demonstration page uses our WeatherBlox Daily Observations layout. Learn more.

Left ArrowRight Arrow

39.29038, -76.61219

Hourly Observations for February 10, 2021

Temp ( °F °C ) Dew Point ( °F °C ) Humidity (%) Winds ( mph kmh ) Pressure ( in mb ) Visibility ( mi km ) Precip ( " mm )
12:54 am 00:54 Partly Cloudy 35 1.7 24 -4.4 64 64 NNW 3 6 30.24 1024 10 16 N/A
1:54 am 01:54 Partly Cloudy 35 1.7 24 -4.4 64 64 NW 3 6 30.25 1024 10 16 N/A
2:54 am 02:54 Mostly Clear 31 -0.6 23 -5 72 72 N N/A 30.27 1025 10 16 N/A
3:54 am 03:54 Clear 32 undefined 23 -5 69 69 N N/A 30.28 1025 10 16 N/A
4:54 am 04:54 Mostly Cloudy 30 -1.1 23 -5 75 75 N N/A 30.31 1026 10 16 N/A
5:54 am 05:54 Mostly Cloudy 30 -1.1 24 -4.4 79 79 N N/A 30.32 1027 10 16 N/A
6:54 am 06:54 Cloudy 30 -1.1 24 -4.4 79 79 N N/A 30.34 1027 10 16 N/A
7:54 am 07:54 Mostly Cloudy 31 -0.6 25 -3.9 79 79 NNW 3 6 30.37 1028 10 16 N/A
8:54 am 08:54 Cloudy 35 1.7 24 -4.4 64 64 VRB 3 6 30.38 1029 10 16 N/A
9:54 am 09:54 Cloudy 37 2.8 23 -5 57 57 ENE 6 9 30.37 1029 10 16 N/A
10:54 am 10:54 Mostly Cloudy 39 3.9 23 -5 53 53 ENE 3 6 30.37 1029 10 16 N/A
11:54 am 11:54 Mostly Cloudy 39 3.9 23 -5 53 53 ESE 6 9 30.34 1028 10 16 N/A
12:54 pm 12:54 Mostly Cloudy 40 4.4 23 -5 51 51 N N/A 30.31 1027 10 16 N/A
1:54 pm 13:54 Mostly Cloudy 42 5.6 25 -3.9 51 51 ESE 13 20 30.30 1026 10 16 N/A
2:54 pm 14:54 Cloudy 40 4.4 24 -4.4 53 53 ESE 10 17 30.31 1026 10 16 N/A
3:54 pm 15:54 Mostly Cloudy 38 3.3 24 -4.4 57 57 E 9 15 30.29 1026 9 14 N/A
4:54 pm 16:54 Cloudy 38 3.3 24 -4.4 57 57 ESE 6 9 30.29 1026 9 14 N/A
6:43 pm 18:43 Cloudy with Light Snow 35 1.7 29 -1.7 78 78 SSW 5 7 30.29 1026 2 3 0.00 0.00
6:54 pm 18:54 Cloudy with Light Snow 34 1.1 30 -1.1 85 85 SSW 3 6 30.27 1025 2 3 0.01 0.25
7:33 pm 19:33 Cloudy with Light Snow 34 1.1 31 -0.6 89 89 N N/A 30.29 1026 2 3 0.01 0.25
7:40 pm 19:40 Cloudy with Light Snow 34 1.1 31 -0.6 89 89 N N/A 30.29 1026 2 3 0.01 0.25
7:54 pm 19:54 Cloudy with Light Snow 34 1.1 31 -0.6 89 89 N N/A 30.28 1025 2 3 0.01 0.25
8:40 pm 20:40 Cloudy with Mist and Fog 33 0.6 31 -0.6 92 92 SE 5 7 30.26 1025 2 3 0.02 0.51
8:51 pm 20:51 Cloudy with Light Snow 34 1 30 -1 87 87 N N/A 30.27 1025 2 2 0.02 0.51
8:54 pm 20:54 Cloudy with Light Snow 33 0.6 31 -0.6 92 92 SE 3 6 30.25 1024 1 2 0.02 0.51
9:27 pm 21:27 Cloudy with Light Snow 33 0.6 31 -0.6 92 92 N N/A 30.26 1025 2 3 0.02 0.51
9:39 pm 21:39 Cloudy with Mist and Fog 33 0.6 31 -0.6 92 92 N N/A 30.27 1025 2 2 0.03 0.76
9:54 pm 21:54 Cloudy with Mist and Fog 33 0.6 31 -0.6 92 92 ESE 3 6 30.25 1024 1 2 0.05 1.27
10:16 pm 22:16 Cloudy with Mist and Fog 33 0.6 31 -0.6 92 92 E 3 6 30.25 1024 1 2 0.02 0.51
10:32 pm 22:32 Cloudy with Mist and Fog 33 0.6 31 -0.6 92 92 N N/A 30.25 1024 1 2 0.04 1.02
10:45 pm 22:45 Cloudy with Mist and Fog 33 0.6 31 -0.6 92 92 ESE 6 9 30.24 1024 1 1 0.05 1.27
10:54 pm 22:54 Cloudy with Fog 33 0.6 31 -0.6 92 92 ENE 3 6 30.24 1024 1 1 0.07 1.78
11:54 pm 23:54 Cloudy with Light Snow 33 0.6 31 -0.6 92 92 E 5 7 30.22 1023 1 1 0.06 1.52

Powered by AerisWeather